Flag for Tuvalu Weather past 2 weeks in Funafuti, Tuvalu

Now
84 °F

Passing clouds.


Feels Like: 94 °F
Forecast: 82 / 90 °F
Wind: 8 mph from Southeast

Location: Funafuti

Current Time: Jul 2, 2015 at 8:46:29 PM

Latest Report: Jul 2, 2015 at 8:00 PM


Visibility: N/A

Pressure: 29.80 "Hg

Humidity: 79%

Dew point: 77 °F

Location of FunafutiLocation

Historic Weather in Funafuti — Graph

°F

Funafuti temperature yesterday

Maximum temperature yesterday: 88 °F (at 10:00 AM)
Minimum temperature yesterday: 81 °F (at 4:00 AM)
Average temperature yesterday: 84 °F

Past Weeks' High & Low Weather Summary

 TemperatureHumidityPressure
High91 °F (Jun 19, 2:00 PM)100% (Jun 25, 5:00 AM)32.49 "Hg (Jun 25, 5:00 AM)
Low77 °F (Jun 25, 5:00 AM)45% (Jun 20, 6:00 PM)29.68 "Hg (Jun 20, 4:00 PM)
Average84 °F83%29.79 "Hg
* Reported Jun 17 8:00 PM — Jul 2 8:00 PM, Funafuti, Weather by CustomWeather, © 2015

Note: Actual official high and low records may vary slightly from our data, if they occured in-between our weather recording intervals... More about our weather records

Advertising

Funafuti weather history for previous 24 hours

 ConditionsComfort  
Time TempWeatherWind HumidityBarometerVisibility
8:00 PM
Thu, Jul 2
84 °FPassing clouds.8 mph79%29.80 "HgN/A
7:00 PM84 °FOvercast.9 mph79%29.77 "HgN/A
6:00 PM84 °FPartly cloudy.8 mph79%29.77 "HgN/A
5:00 PM84 °FBroken clouds.8 mph79%29.74 "HgN/A
4:00 PM86 °FBroken clouds.8 mph75%29.74 "HgN/A
3:00 PM86 °FBroken clouds.9 mph79%29.74 "HgN/A
2:00 PM86 °FBroken clouds.12 mph79%29.77 "HgN/A
1:00 PM90 °FBroken clouds.8 mph67%29.83 "HgN/A
12:00 PM88 °FMostly cloudy.9 mph75%29.80 "HgN/A
11:00 AM86 °FScattered showers. Broken clouds.8 mph79%29.83 "HgN/A
10:00 AM84 °FScattered showers. Cloudy.13 mph84%29.83 "HgN/A
9:00 AM84 °FScattered showers. Broken clouds.9 mph84%29.83 "HgN/A
8:00 AM82 °FScattered showers. Broken clouds.3 mph89%29.83 "HgN/A
7:00 AM82 °FBroken clouds.7 mph84%29.80 "HgN/A
6:00 AM82 °FPassing clouds.6 mph89%29.77 "HgN/A
5:00 AM82 °FScattered showers. Passing clouds.1 mph84%29.77 "HgN/A
4:00 AM82 °FPassing clouds.1 mph84%29.77 "HgN/A
3:00 AM82 °FPassing clouds.3 mph89%29.77 "HgN/A
12:00 AM82 °FPassing clouds.No wind84%29.83 "HgN/A
11:00 PM
Wed, Jul 1
82 °FPassing clouds.No wind79%29.83 "HgN/A
10:00 PM82 °FPassing clouds.No wind79%29.83 "HgN/A
9:00 PM82 °FPassing clouds.No wind79%29.83 "HgN/A
8:00 PM82 °FPassing clouds.No wind84%29.83 "HgN/A
Weather by CustomWeather, © 2015

See weather overviewHow to use our weather pages